Regional Weather Roundup
Issued by NWS

Home | Current Version | Previous Version | Graphics & Text | Print | Product List | Glossary On
Versions: 1 2 3 4 5 6 7 8 9 10 11 12 13 14 15 16 17 18 19 20 21 22 23 24 25 26 27 28 29 30 31 32 33 34 35 36 37 38 39 40 41 42 43 44 45 46 47 48 49 50
000
ASUS45 KABQ 281701
RWRNM
WEATHER ROUNDUP FOR NEW MEXICO
NATIONAL WEATHER SERVICE ALBUQUERQUE NM
1000 AM MST WED JAN 28 2015

NOTE: "FAIR" MEANS FEW OR NO CLOUDS BELOW 12,000 FEET AGL WITH NO
       SIGNIFICANT WEATHER OR OBSTRUCTIONS TO VISION.

      THIS PRODUCT IS RELEASED AS TWO VERSIONS.  ONE VERSION NEAR
      THE TOP OF THE HOUR CONTAINING PRELIMINARY DATA FROM ALBUQUERQUE
      AND OTHER STATIONS.  A FINAL VERSION WITH ADDITIONAL DATA IS
      ISSUED ABOUT 10 MINUTES AFTER THE HOUR.

NMZ501-503-504-510>518-281800-
NORTHWEST PLATEAU/NORTHCENTRAL MOUNTAINS

CITY           SKY/WX    TMP DP  RH WIND       PRES   REMARKS
FARMINGTON     SUNNY     41  30  65 E5        30.30S
SANTA FE       SUNNY     50  33  52 N9        30.26S
TAOS           SUNNY     41  32  70 CALM      30.30R

$$
NMZ402-403-502-505>509-281800-
WESTCENTRAL MOUNTAINS/SOUTHWEST MOUNTAINS

CITY           SKY/WX    TMP DP  RH WIND       PRES   REMARKS
GALLUP         SUNNY     42  34  73 CALM      30.32S
GRANTS         SUNNY     43  36  77 NW5       30.33S
SILVER CITY    SUNNY     59  36  41 NW6       30.30F

$$
NMZ407-409-411-412-281800-
SOUTHERN DESERTS

CITY           SKY/WX    TMP DP  RH WIND       PRES   REMARKS
DEMING         SUNNY     58  39  49 NE3       30.26S
HOLLOMAN AFB   SUNNY     57  42  58 W9        30.23S
ALAMOGORDO     SUNNY     57  41  54 SE7       30.25R
T OR C         SUNNY     55  38  52 E5        30.28R

$$
NMZ519>523-281800-
CENTRAL VALLEYS/CENTRAL HIGHLANDS

CITY           SKY/WX    TMP DP  RH WIND       PRES   REMARKS
ALBUQUERQUE    MOSUNNY   50  36  58 CALM      30.28F
DOUBLE EAGLE   MOSUNNY   54  34  47 W10       30.29F
MORIARTY ARPT  FAIR      53  31  43 W16       30.26F
CLINES CORNERS SUNNY     49  31  49 W38G48    30.18S
BELEN          FAIR      50  38  62 CALM      30.29S
SOCORRO        NOT AVBL

$$
NMZ524>526-539-540-281800-
SOUTHCENTRAL MOUNTAINS

CITY           SKY/WX    TMP DP  RH WIND       PRES   REMARKS
RUIDOSO        NOT AVBL

$$
NMZ527>531-281800-
NORTHEAST HIGHLANDS/NORTHEAST PLAINS

CITY           SKY/WX    TMP DP  RH WIND       PRES   REMARKS
LAS VEGAS      SUNNY     53  25  33 SE5       30.16R
RATON          SUNNY     50  31  48 NE6       30.11R
CLAYTON        PTSUNNY   61  28  28 N16       30.07S

$$
NMZ532>537-281800-
EASTCENTRAL PLAINS

CITY           SKY/WX    TMP DP  RH WIND       PRES   REMARKS
TUCUMCARI      MOSUNNY   60  36  40 W16       30.08R
CANNON AFB     CLOUDY    54  38  55 W18       30.12S
CLOVIS AIRPORT CLOUDY    57  37  47 W18       30.12R

$$
NMZ028-029-538-281800-
SOUTHEAST PLAINS

CITY           SKY/WX    TMP DP  RH WIND       PRES   REMARKS
ROSWELL        SUNNY     58  43  57 CALM      30.19S
ARTESIA        SUNNY     59  45  58 CALM      30.19F
CARLSBAD       SUNNY     58  42  55 NE3       30.18R
HOBBS          SUNNY     63  41  45 W15G25    30.20R


$$


USA.gov is the U.S. government's official web portal to all federal, state and local government web resources and services.